Location: Dackenheim
(49.5215°N, 8.1854°E)
Time: 18:22:36
(UTC+00:00)

AO-73 - Visible Passes

Search period start: 07 March 2026 00:00
Search period end: 17 March 2026 00:00
Orbit: 517 x 568 km, 97.8° (Epoch: 7 March)

Date Brightness Start Highest point End Pass type
(mag) Time Alt. Az. Time Alt. Az. Time Alt. Az.
7 Mar ? 03:22:34 10° NNE 03:25:22 46° NNE 03:25:22 46° NNE visible
7 Mar ? 04:59:12 10° NW 05:00:24 11° WNW 05:00:56 11° WNW visible
8 Mar ? 03:16:02 10° NNE 03:18:53 47° NNE 03:18:53 47° NNE visible
8 Mar ? 04:52:10 10° NNW 04:53:56 13° WNW 04:54:28 12° WNW visible
9 Mar ? 03:09:29 10° NNE 03:12:24 46° NE 03:12:24 46° NE visible
9 Mar ? 04:45:16 10° NNW 04:47:26 15° WNW 04:47:58 14° WNW visible
10 Mar ? 03:02:56 10° NNE 03:05:53 43° ENE 03:05:53 43° ENE visible
10 Mar ? 04:38:25 10° NNW 04:40:54 17° WNW 04:41:28 16° WNW visible
11 Mar ? 02:56:21 10° NNE 02:59:21 39° ENE 02:59:21 39° ENE visible
11 Mar ? 04:31:36 10° NNW 04:34:21 19° WNW 04:34:55 18° WNW visible
12 Mar ? 02:49:48 10° NNE 02:52:47 34° ENE 02:52:47 34° ENE visible
12 Mar ? 04:24:47 10° NNW 04:27:45 22° WNW 04:28:21 21° WNW visible
13 Mar ? 02:43:13 10° NNE 02:46:11 30° E 02:46:11 30° E visible
13 Mar ? 04:17:58 10° N 04:21:08 25° WNW 04:21:45 24° W visible
14 Mar ? 02:36:39 10° NE 02:39:34 26° E 02:39:34 26° E visible
14 Mar ? 04:11:09 10° N 04:14:29 29° WNW 04:15:08 27° W visible
15 Mar ? 02:30:04 10° NE 02:32:56 23° E 02:32:56 23° E visible
15 Mar ? 04:04:20 10° N 04:07:48 33° WNW 04:08:30 31° W visible
16 Mar ? 02:23:32 10° NE 02:26:16 19° E 02:26:16 19° E visible
16 Mar ? 03:57:29 10° N 04:01:04 39° WNW 04:01:50 35° W visible
